Regional Weather Roundup
Issued by NWS

Home | Current Version | Previous Version | Graphics & Text | Print | Product List | Glossary On
Versions: 1 2 3 4 5 6 7 8 9 10 11 12 13 14 15 16 17 18 19 20 21 22 23 24 25 26 27 28 29 30 31 32 33 34 35 36 37 38 39 40 41 42 43 44 45 46 47 48 49 50
000
ASUS43 KTOP 041608
RWRKS

WEATHER ROUNDUP FOR KANSAS
NATIONAL WEATHER SERVICE GOODLAND KS
1100 AM CDT FRI SEP 04 2015

NOTE:  "FAIR" INDICATES FEW OR NO CLOUDS BELOW 12,000 FEET WITH NO
SIGNIFICANT WEATHER AND/OR OBSTRUCTIONS TO VISIBILITY.

KSZ001>006-013>018-027>032-041>047-041700-
NORTHWEST KANSAS

CITY           SKY/WX    TMP DP  RH WIND       PRES   REMARKS
GOODLAND       SUNNY     83  53  35 NW6       29.94R
HAYS           SUNNY     88  61  40 S22G29    29.88S
HILL CITY      SUNNY     86  60  41 S13G20    29.87R
RUSSELL        SUNNY     87  62  43 S28G36    29.88R
$$

KSZ061>065-074>080-084>089-041700-
SOUTHWEST KANSAS

CITY           SKY/WX    TMP DP  RH WIND       PRES   REMARKS
DODGE CITY     SUNNY     83  58  42 S22       29.94R
ELKHART          N/A     83  57  41 S3          N/A
GARDEN CITY    MOSUNNY   79  57  46 SW13      29.92R
GREAT BEND     SUNNY     86  63  45 S24G32    29.90R
LIBERAL        SUNNY     82  57  42 S14       29.95S
PRATT          SUNNY     84  61  45 MISG      29.96R
$$

KSZ066>073-081>083-090>101-041700-
SOUTHEAST KANSAS

CITY           SKY/WX    TMP DP  RH WIND       PRES   REMARKS
CHANUTE        SUNNY     84  70  62 S13       30.02R
COFFEYVILLE    SUNNY     83  71  67 S8        30.01R
HUTCHINSON     SUNNY     86  66  51 S22       29.96R
MEDICINE LODGE   N/A     85  65  51 S15G25    29.94F
NEWTON         SUNNY     86  64  48 S16       30.00S
PARSONS        SUNNY     84  72  67 SW9       30.03R
WICHITA INTL   MOSUNNY   86  66  51 S17       29.97R
WICHITA JABRA  SUNNY     83  68  60 S14       29.98R
WICHITA MCCONL SUNNY     84  67  56 S14       29.98R
WINFIELD       SUNNY     87  68  52 S13       30.00R
$$

KSZ007>012-019>026-033>040-048>060-102>105-041700-
NORTHEAST KANSAS

CITY           SKY/WX    TMP DP  RH WIND       PRES   REMARKS
CONCORDIA      SUNNY     86  65  49 S21G29    29.90S
EMPORIA        SUNNY     84  67  56 S15       29.99S
LAWRENCE       SUNNY     86  68  54 S13       29.99R
MANHATTAN      SUNNY     88  67  49 S13G23    29.94F
MARYSVILLE     MOSUNNY   84  68  58 S10       29.94S
OLATHE IND     SUNNY     83  70  64 S13       30.01S
OLATHE EXE     MOSUNNY   81  69  67 S10       30.01R
SALINA         SUNNY     88  65  46 S25G32    29.92R
TOPEKA BILLARD SUNNY     84  69  60 S12       29.98S
TOPEKA FORBES  SUNNY     85  70  60 S10       29.99R
$$


USA.gov is the U.S. government's official web portal to all federal, state and local government web resources and services.